Location: Andershausen
(51.8462°N, 9.8595°E)
Time: 06:57:50
(UTC+00:00)

Cosmos 1862 - Pass Details

Date: 18 November 2025
Orbit: 473 x 485 km, 82.5° (Epoch: 11 December)

Event Time Altitude Azimuth Distance (km) Brightness Sun altitude
Rises 16:14:44 0° 1° (N) 2,544 6.5 -7.6°
Reaches altitude 10° 16:17:23 10° 22° (NNE) 1,662 5.4 -8.0°
Maximum altitude 16:19:54 18° 66° (ENE) 1,257 4.5 -8.3°
Drops below altitude 10° 16:22:26 10° 110° (ESE) 1,658 5.3 -8.7°
Sets 16:25:03 0° 131° (SE) 2,536 6.4 -9.1°
